Theta_e
302 297 296 300 302 303 303 303 302 306 309 307 306 306 310 314 312 312 314 315 316 318 323 326 328 329 329 332 334 335 337 341 338 334 331 331 330 333 335 337 340 341 340 340
299 294 301 303 304 302 301 300 301 305 308 307 306 305 309 311 312 313 314 315 316 319 321 325 327 328 329 331 333 335 337 339 337 334 333 332 331 332 335 337 340 341 340 339
296 298 302 301 300 299 300 299 300 300 304 307 304 301 305 310 313 314 315 316 318 318 318 324 326 327 330 331 333 335 337 338 337 338 336 336 336 337 332 335 336 338 339 338
297 302 300 299 298 300 297 302 301 300 299 295 304 295 303 308 309 311 313 315 316 318 322 324 326 327 330 330 333 335 336 337 337 339 335 335 329 327 333 335 338 336 337 335
295 297 298 298 299 302 299 302 300 300 298 298 299 296 301 306 305 308 312 315 317 319 323 324 326 327 329 330 332 334 337 337 338 337 337 333 333 333 336 334 335 337 337 335
297 303 300 300 302 302 303 300 300 301 299 292 298 297 298 302 306 309 313 314 316 320 322 325 327 328 328 331 332 334 335 336 337 337 337 336 336 335 332 333 332 335 337 336
296 296 300 302 299 302 301 298 292 291 292 291 300 298 300 307 310 311 311 314 319 322 323 324 325 325 327 329 331 333 334 334 335 335 335 338 337 336 334 333 333 332 334 335
288 288 297 301 299 298 298 299 294 287 290 293 301 295 301 308 311 313 313 315 318 321 324 324 325 326 327 329 331 331 332 332 333 333 335 338 338 334 334 334 334 334 334 332
290 291 300 300 301 303 299 297 303 297 298 295 299 302 307 309 309 313 314 314 318 322 324 324 326 327 328 329 331 332 332 331 331 333 337 337 338 336 334 334 337 333 335 332
296 291 299 299 302 303 302 304 296 297 291 289 295 298 301 305 307 310 314 316 320 323 323 324 325 327 329 331 332 333 332 330 331 334 335 335 337 336 335 335 333 333 334 333
297 295 296 298 297 297 299 299 300 301 298 292 292 296 306 307 311 312 315 319 320 322 322 323 325 327 329 330 331 332 329 329 331 332 335 336 336 336 335 335 333 333 334 334
297 296 292 296 300 304 303 301 301 295 294 297 296 296 310 311 314 315 315 318 321 323 323 324 325 326 327 329 329 329 328 328 330 332 333 335 336 336 335 334 335 333 333 333
294 293 291 293 297 301 299 300 303 302 302 296 292 294 309 312 313 314 317 319 321 322 322 323 324 325 326 327 328 327 327 327 329 331 332 335 335 335 335 334 334 334 333 332
296 294 294 290 294 298 296 298 301 301 296 297 296 299 305 310 312 315 317 319 321 322 322 323 323 324 326 327 326 325 326 328 328 329 331 333 334 335 334 334 334 333 333 333
295 292 294 295 295 296 298 297 299 298 300 296 298 299 304 310 311 312 316 319 320 321 322 322 323 324 326 326 325 324 325 327 328 327 331 333 335 335 334 334 333 333 334 333
296 292 295 292 296 296 295 298 299 299 300 300 300 300 308 310 310 311 314 316 319 321 321 322 323 325 325 325 324 323 324 326 328 328 330 333 333 332 333 333 334 334 333 333
292 291 292 289 296 294 292 297 298 299 301 301 297 303 307 307 308 311 314 317 319 321 322 323 324 325 327 325 324 323 324 326 327 327 330 332 332 331 332 333 332 333 334 335
291 291 294 291 294 286 298 304 303 301 302 303 303 304 307 308 312 314 315 314 319 322 324 325 325 327 328 327 325 325 325 325 325 327 329 331 330 331 333 334 333 334 335 335
294 291 288 290 290 295 299 300 300 301 299 303 304 306 308 310 311 311 318 320 319 324 327 327 328 329 329 327 326 324 324 323 323 324 328 331 330 331 333 333 335 336 336 336
294 294 289 293 289 286 298 301 303 305 298 304 305 306 307 309 303 311 317 318 322 325 328 328 329 329 329 327 326 324 323 322 322 324 327 331 331 332 332 333 334 337 337 334
287 288 286 288 292 295 300 302 304 295 297 305 306 307 307 307 311 315 317 318 321 326 327 330 330 329 329 328 327 324 323 322 323 324 327 331 333 333 335 335 334 335 335 334
290 288 286 289 289 288 302 302 298 301 306 306 307 308 308 311 313 315 317 319 320 322 326 329 329 329 330 328 326 324 323 324 324 324 326 330 333 333 333 335 333 334 335 334
288 290 290 290 289 299 301 301 306 306 305 306 307 308 310 311 313 316 318 320 321 322 325 328 329 329 330 328 326 324 325 325 323 324 325 327 333 333 333 333 332 330 332 331
292 294 291 291 294 297 300 304 305 306 306 308 308 309 311 312 315 317 319 321 323 324 324 327 328 328 328 328 327 326 326 325 324 324 325 327 329 331 332 331 331 327 327 326
293 295 293 291 293 297 299 302 303 304 307 308 308 309 310 313 315 318 320 322 324 325 324 327 327 328 328 328 327 327 326 325 324 325 325 326 326 331 331 331 330 328 331 323
295 293 291 290 295 295 297 300 303 303 304 307 307 308 310 313 314 318 321 325 326 326 324 326 328 329 328 328 327 327 326 325 326 325 324 324 323 326 328 329 329 299 306 304
Wind_Speed
24 21 30 41 32 25 23 25 30 25 23 23 26 27 27 23 16 23 22 20 22 22 21 16 8 8 5 7 11 13 15 17 14 12 11 9 9 8 6 5 6 8 8 9
21 31 45 28 28 29 27 27 30 25 20 22 24 27 28 24 23 23 25 23 22 20 18 13 4 5 6 9 10 14 15 16 13 10 8 7 6 5 4 3 4 6 7 8
34 42 26 30 28 33 33 31 25 24 19 20 21 27 28 25 27 27 24 21 19 20 20 13 6 5 8 11 13 14 16 17 13 12 8 6 5 3 6 6 5 4 6 6
31 31 25 33 34 31 31 26 24 22 20 23 20 25 25 22 24 22 23 21 22 17 14 8 7 8 9 11 13 16 16 16 12 12 9 7 4 4 2 2 1 4 5 5
31 24 35 31 38 27 26 16 20 21 20 22 24 21 18 21 25 22 20 20 18 14 8 8 9 10 12 14 15 16 16 14 13 10 8 8 5 3 3 3 4 5 4 4
27 15 19 37 21 25 22 13 19 19 16 20 20 21 18 22 24 21 15 12 11 7 6 9 10 13 14 16 17 16 16 13 12 10 8 5 4 2 3 3 4 2 3 4
24 27 25 21 29 24 23 23 10 13 14 13 16 16 21 21 18 18 17 10 6 7 10 13 15 15 17 18 17 15 15 14 12 10 9 7 5 4 4 5 2 0 3 5
23 24 31 24 30 21 28 26 12 17 14 12 20 11 14 9 14 16 16 11 3 7 12 14 16 17 18 18 17 16 15 13 12 10 9 6 5 4 3 1 2 2 4 4
22 30 26 25 24 27 32 29 23 10 6 8 10 12 15 19 16 10 9 12 7 10 13 15 17 17 17 16 16 15 14 12 11 10 8 7 5 3 4 3 2 4 4 5
10 13 26 34 26 28 30 23 22 13 16 12 8 13 7 1 9 11 9 9 11 13 15 16 16 17 15 15 14 14 12 12 11 10 8 7 6 5 5 4 4 4 5 5
14 9 18 28 24 28 18 23 23 14 10 12 5 6 6 10 5 9 7 10 15 16 16 17 17 16 16 15 14 13 11 12 11 9 8 7 6 6 5 5 5 5 6 6
4 8 12 26 26 22 23 20 23 16 19 8 6 3 2 3 1 1 4 11 16 16 17 18 18 17 16 15 15 13 11 11 11 9 8 6 6 5 5 6 6 6 6 6
5 11 11 20 25 21 28 22 26 15 10 18 11 3 8 3 1 3 9 14 16 17 18 18 18 17 16 15 14 13 12 11 10 9 8 7 5 6 6 7 6 6 6 6
6 11 14 8 22 16 26 28 26 21 11 14 17 12 8 7 10 9 10 12 15 16 18 18 17 16 16 15 14 13 12 11 10 8 7 7 5 6 7 7 7 6 6 6
6 16 16 8 5 6 13 27 24 26 19 15 14 18 13 11 6 6 5 11 15 16 17 18 17 16 16 15 14 13 12 11 10 8 8 7 7 7 8 8 7 6 7 6
7 8 11 14 9 5 7 22 22 22 21 17 11 14 13 10 8 3 1 7 15 16 17 18 19 18 17 16 15 13 12 11 10 9 8 8 7 8 9 8 9 7 7 7
5 6 10 16 14 4 7 15 19 20 23 19 19 14 6 5 5 5 6 2 14 16 17 19 20 18 16 17 15 14 13 12 11 10 9 9 9 10 9 9 9 8 8 7
8 6 8 13 12 12 10 8 13 16 14 12 17 14 11 7 10 11 13 14 8 14 17 19 18 18 17 17 16 15 14 14 13 11 10 10 10 11 10 9 9 8 7 7
12 4 6 7 13 8 12 7 4 5 8 5 4 8 9 11 11 8 11 15 8 12 12 13 16 18 18 18 17 16 15 14 14 12 12 11 11 11 10 9 9 8 7 7
8 7 5 8 17 11 12 7 4 4 7 8 6 7 9 10 8 6 12 12 11 5 12 13 16 18 19 18 18 17 16 15 14 14 13 12 12 11 9 9 8 7 8 7
3 4 8 5 7 8 10 10 4 10 6 7 7 8 9 8 10 17 15 11 8 10 11 14 17 17 19 19 19 18 17 16 15 14 13 13 11 11 9 8 7 7 7 8
2 3 5 4 6 6 15 4 4 9 6 7 8 9 11 12 13 14 13 11 8 7 11 16 17 17 19 20 19 18 17 16 16 15 14 14 11 10 9 9 7 8 8 9
1 4 3 4 4 7 5 10 9 8 8 9 10 11 12 13 13 13 11 10 8 7 11 15 17 18 18 20 20 19 17 17 17 16 14 14 13 11 11 10 9 8 8 8
2 2 2 3 4 7 6 8 11 11 10 11 11 11 13 14 14 14 12 10 7 6 10 14 18 20 20 20 20 18 19 18 17 16 15 14 13 12 12 10 9 8 7 7
4 6 4 1 8 5 3 14 15 15 15 13 12 12 13 14 14 14 12 11 8 7 11 15 18 19 21 20 20 19 19 19 17 16 15 14 12 13 12 10 9 8 8 5
6 7 5 3 4 4 12 14 16 14 16 15 15 14 13 14 15 15 12 10 8 8 11 14 17 18 20 21 20 20 20 20 18 17 14 13 12 12 11 11 8 8 7 9
Wind_Direction
195 204 216 215 217 234 246 243 245 244 241 245 246 262 269 266 267 268 274 280 280 285 290 283 284 277 224 186 178 191 182 170 171 163 167 174 195 201 212 231 240 248 252 248
187 216 222 219 220 224 235 241 245 251 249 256 268 265 273 268 265 272 275 274 278 276 286 281 278 223 179 164 173 167 172 165 167 163 173 183 198 198 231 245 243 258 250 239
215 223 219 218 221 222 223 232 240 252 263 261 258 265 267 265 260 259 264 262 262 264 279 270 205 189 160 157 163 163 160 162 163 152 148 156 149 195 216 203 221 207 237 230
232 232 218 223 226 216 227 221 243 254 252 253 246 269 266 272 270 264 266 265 264 266 257 234 182 170 162 150 152 153 155 157 153 166 164 175 196 233 80 258 206 231 230 229
223 221 232 224 225 215 233 228 229 238 250 263 255 261 272 268 265 263 258 254 251 251 254 192 174 157 147 147 148 149 150 156 151 157 164 168 212 154 190 206 209 246 205 214
242 231 232 232 223 218 215 208 221 233 243 248 252 253 263 260 262 263 262 258 223 179 179 147 140 144 142 144 142 145 147 146 154 160 155 178 149 204 227 218 242 218 198 219
227 239 250 238 208 200 188 190 194 216 220 247 241 243 253 269 262 256 258 242 149 161 152 148 149 149 149 146 146 146 148 149 156 158 166 168 160 171 209 241 270 199 213 217
222 228 220 212 216 190 194 185 203 211 223 234 215 241 245 275 265 254 243 226 163 160 145 146 150 148 146 148 150 149 150 153 159 166 170 159 157 175 200 154 332 161 171 186
211 232 190 224 214 197 188 211 207 248 269 240 181 237 263 262 257 253 227 212 183 158 146 147 146 148 147 150 152 152 152 153 161 168 159 163 156 167 79 90 167 152 145 137
281 260 225 195 206 207 195 192 201 206 216 216 201 251 248 331 218 214 198 180 163 154 149 148 149 149 149 151 149 154 156 158 162 164 167 167 158 151 124 134 120 139 157 169
278 260 220 186 201 187 190 198 211 202 236 199 230 225 235 260 186 208 219 154 162 156 153 152 152 151 151 151 152 155 162 162 162 169 163 159 156 146 148 145 141 143 166 166
216 286 266 204 203 210 200 197 196 196 191 229 220 223 276 224 269 300 158 152 151 154 154 156 152 155 153 154 154 158 165 165 165 167 163 157 158 157 155 154 135 162 165 174
345 237 228 196 194 210 206 204 197 215 190 205 199 246 202 111 166 135 139 148 152 153 156 153 154 160 156 157 162 163 170 165 162 166 158 150 148 159 156 145 137 160 164 160
259 256 262 217 186 194 204 199 194 203 196 189 212 208 211 120 101 101 130 152 157 160 161 156 161 161 158 160 168 164 171 159 160 167 166 136 149 150 143 143 142 153 156 156
287 238 227 255 328 285 240 199 195 200 214 223 185 221 234 152 70 41 88 164 163 165 169 164 165 164 158 165 166 168 166 161 159 165 157 130 142 136 144 135 137 140 146 144
333 255 245 253 230 239 237 202 199 201 209 221 220 233 235 272 280 273 254 197 182 174 173 170 168 165 164 168 170 167 166 160 161 161 146 141 138 140 139 141 135 141 135 141
310 307 244 231 200 204 222 201 201 203 218 222 219 221 235 231 247 297 19 245 210 181 175 177 173 169 167 169 170 169 165 160 164 166 147 150 144 144 147 146 141 139 143 141
258 316 278 238 162 208 87 159 201 207 219 232 253 262 264 353 329 318 300 285 222 195 183 179 175 169 169 168 168 168 166 165 169 168 159 156 154 148 150 152 140 142 154 157
226 250 280 218 199 157 140 51 332 282 120 27 324 295 309 313 311 269 17 354 273 206 192 190 176 167 166 169 166 168 168 172 172 169 164 164 151 155 157 146 144 150 153 140
202 228 287 236 202 193 53 4 334 267 171 27 337 313 324 325 261 93 0 352 344 224 179 187 178 171 166 170 167 170 172 176 177 171 169 169 153 154 156 139 142 148 151 144
194 205 231 262 210 97 5 329 186 215 74 1 340 331 320 307 322 324 319 318 318 289 192 179 178 180 170 169 169 175 175 180 178 170 169 172 162 160 149 143 143 147 154 131
210 199 177 230 264 125 353 59 311 26 8 355 347 345 325 314 306 304 308 307 305 295 203 186 181 180 175 170 174 178 179 179 177 171 171 171 167 178 159 158 148 148 142 144
220 357 5 333 32 359 360 60 51 18 4 1 341 343 332 320 318 313 308 300 286 267 215 189 183 179 180 176 178 180 177 179 177 173 174 171 172 178 162 169 160 156 166 158
6 322 306 291 28 348 51 38 22 1 348 353 346 341 336 337 327 320 315 310 296 247 212 199 188 182 180 181 183 183 174 179 176 175 176 174 179 178 173 177 176 173 177 172
355 303 345 66 10 318 179 356 351 344 338 341 347 343 344 337 341 333 320 310 290 271 211 205 198 187 182 180 186 182 177 178 175 177 177 178 184 186 178 195 183 189 186 182
360 360 1 11 29 293 296 319 329 336 334 336 340 340 343 341 347 342 335 320 293 269 224 210 204 192 182 184 183 184 179 178 177 179 180 181 184 183 186 190 177 58 27 108